Location: Franzen
(48.6167°N, 15.3833°E)
Time: 09:57:54
(UTC+00:00)

Meteor 2-6 Rocket - Pass Details

Date: 22 April 2021
Orbit: 807 x 914 km, 81.3° (Epoch: 16 May)

Event Time Altitude Azimuth Distance (km) Brightness Sun altitude
Exits shadow 23:11:18 72° 321° (NW) 854 4.2 -28.8°
Drops below altitude 10° 23:16:20 10° 9° (N) 2,402 7.5 -28.7°
Sets 23:18:45 0° 11° (N) 3,342 8.5 -28.7°
